Regional Weather Roundup
Issued by NWS Cleveland, OH

Home | Current Version | Previous Version | Graphics & Text | Print | Product List | Glossary On
Versions: 1 2 3 4 5 6 7 8 9 10 11 12 13 14 15 16 17 18 19 20 21 22 23 24 25 26 27 28 29 30 31 32 33 34 35 36 37 38 39 40 41 42 43 44 45 46 47 48 49 50
000
ASUS41 KCLE 230302
RWRCLE
OHIO REGIONAL WEATHER ROUNDUP
NATIONAL WEATHER SERVICE CLEVELAND, OH
1000 PM EST SAT NOV 22 2014

NOTE: "FAIR" INDICATES FEW OR NO CLOUDS BELOW 12,000 FEET WITH NO
SIGNIFICANT WEATHER AND/OR OBSTRUCTIONS TO VISIBILITY.

OHZ001>008-015>018-024>027-034-035-043-044-230400-
   NORTHWEST OHIO

CITY           SKY/WX    TMP DP  RH WIND       PRES   REMARKS
DEFIANCE       CLOUDY    50  42  74 S13       29.97F
FINDLAY        CLOUDY    50  39  66 SW14      29.99S
TOLEDO EXPRESS CLOUDY    50  41  71 SW9       29.97S
TOLEDO EXEC    CLOUDY    50  40  68 SW12      29.98F
LIMA           CLOUDY    52  39  61 SW14      30.01R
$$

OHZ009>014-019>023-028>033-038-089-230400-
   NORTHEAST OHIO

CITY           SKY/WX    TMP DP  RH WIND       PRES   REMARKS
CLE-HOPKINS    CLOUDY    48  35  60 S15G23    30.04S
CLE-LAKEFRONT  CLOUDY    51  35  54 S22G33    30.00S
CUY CO. ARPT   LGT RAIN  50  37  62 S17G25    30.02S
LORAIN-ELYRIA  CLOUDY    48  37  65 SW15G22   30.02S
ASHTABULA      MOCLDY    42  32  67 S12       30.03F
AKRON-CANTON   LGT RAIN  45  33  63 SW10G17   30.06S
WOOSTER        CLOUDY   N/A N/A N/A SW10      30.06F
MANSFIELD      CLOUDY    46  38  73 S14       30.04S
YOUNGSTOWN     CLOUDY    46  34  62 S12       30.05F
$$

OHZ042-051>053-060>062-070>072-077>081-230400-
  SOUTHWEST OHIO

CITY           SKY/WX    TMP DP  RH WIND       PRES   REMARKS
CINC-COVINGTON PTCLDY    51  32  48 S8        30.07S
CINC-LUNKEN    MOCLDY    47  35  63 W5        30.09F
HAMILTON       MOCLDY    54  34  46 S5        30.08S
DAYTON         CLOUDY    54  36  50 S15       30.05S
WRIGHT-PAT AFB CLOUDY    52  37  58 S10       30.05F
DAYTON GENERAL CLOUDY    49  40  71 S8        30.06F
WILMINGTON     CLOUDY    49  32  52 S8        30.08S
$$

OHZ036-037-039>041-045>050-054>059-063>069-073>076-082>088-230400-
  CENTRAL AND SOUTHEAST OHIO

CITY           SKY/WX    TMP DP  RH WIND       PRES   REMARKS
COLUMBUS       CLOUDY    48  33  56 S3        30.08S
OSU AIRPORT    CLOUDY    49  35  58 S7        30.07S
BOLTON FIELD   NOT AVBL
RICKENBACK AFB NOT AVBL
NEWARK         PTCLDY    48  31  51 SW6       30.08S
MARION         LGT RAIN  48  38  68 S15       30.04F
LANCASTER      MOCLDY    50  32  50 S7        30.09F
ZANESVILLE     CLOUDY    47  31  53 S3        30.10S
NEW PHILLY     CLOUDY    51  31  46 S6        30.10S
$$


USA.gov is the U.S. government's official web portal to all federal, state and local government web resources and services.